Curacao, Curacao

4:52 AM AST on July 22, 2017 (GMT -0400)
Willemstad-Hato International

Weather History for TNCC - August, 2014

Change the Weather History Date:

Monday, August 25, 2014

  Actual Average Record
Temperature  
Mean Temperature 86 °F -  
Max Temperature 90 °F 89 °F 96 °F (2016)
Min Temperature 81 °F 78 °F 75 °F (2007)
Cooling Degree Days 20    
Growing Degree Days 36 (Base 50)    
Moisture  
Dew Point 77 °F    
Average Humidity 75    
Maximum Humidity 89    
Minimum Humidity 54    
Precipitation  
Precipitation 0.00 in 0.06 in - ()
Sea Level Pressure  
Sea Level Pressure 29.81 in    
Wind  
Wind Speed 11 mph ()    
Max Wind Speed 17 mph    
Max Gust Speed -    
Visibility 8.7 miles    
Events      
Averages and records for this station are not official NWS values.
T = Trace of Precipitation, MM = Missing Value Source: Averaged Metar Reports

Daily Weather History Graph

Daily Weather History Graph

Search for Another Location

Airport or City:

Trip Planner

Search our weather history database for the weather conditions in past years. The results will help you decide how hot, cold, wet, or windy it might be!

Date:

Astronomy

Aug. 25, 2014 Rise Set
Actual Time 6:25 AM AST 6:50 PM AST
Civil Twilight 6:03 AM AST 7:12 PM AST
Nautical Twilight 5:38 AM AST 7:37 PM AST
Astronomical Twilight 5:12 AM AST 8:02 PM AST
Moon 6:19 AM AST (8/25) 6:51 PM AST (8/25)
Length of Visible Light 13h 08m
Length of Day
12h 25m
New Moon, 0% of the Moon is Illuminated
Aug 25
New Moon
Sep 2
First Quarter
Sep 8
Full
Sep 15
Last Quarter
Sep 24
New

Hourly Weather History & Observations

Time (AST) Temp. Heat Index Dew Point Humidity Pressure Visibility Wind Dir Wind Speed Gust Speed Precip Events Conditions
12:00 AM 82.4 °F 89.5 °F 75.2 °F 79% 29.83 in - ESE 10.4 mph - N/A   Clear
1:00 AM 82.4 °F 89.5 °F 75.2 °F 79% 29.83 in 6.2 mi ESE 9.2 mph - N/A   Partly Cloudy
2:00 AM 82 °F - 76 °F 79% 29.81 in 16 mi SE 8.1 mph - -   Partly Cloudy
2:00 AM 82.4 °F 90.9 °F 77.0 °F 84% 29.80 in 6.2 mi SE 8.1 mph - N/A   Scattered Clouds
3:00 AM 82.4 °F 90.9 °F 77.0 °F 84% 29.80 in 6.2 mi ESE 10.4 mph - N/A   Scattered Clouds
4:00 AM 82.4 °F 89.5 °F 75.2 °F 79% 29.80 in 6.2 mi ESE 10.4 mph - N/A   Partly Cloudy
5:00 AM 82 °F - 76 °F 76% 29.81 in 16 mi SE 10.4 mph - -   Partly Cloudy
5:00 AM 82.4 °F 89.5 °F 75.2 °F 79% 29.80 in 6.2 mi SE 10.4 mph - N/A   Scattered Clouds
6:00 AM 82.4 °F 89.5 °F 75.2 °F 79% 29.80 in 6.2 mi SE 9.2 mph - N/A   Scattered Clouds
7:00 AM 82.4 °F 89.5 °F 75.2 °F 79% 29.83 in 6.2 mi SSE 9.2 mph - N/A   Partly Cloudy
8:00 AM 85 °F - 76 °F 67% 29.85 in 16 mi SE 13.8 mph - -   Partly Cloudy
8:00 AM 86.0 °F 95.1 °F 75.2 °F 70% 29.83 in 6.2 mi SE 13.8 mph - N/A   Scattered Clouds
9:00 AM 86.0 °F 95.1 °F 75.2 °F 70% 29.86 in 6.2 mi SE 13.8 mph - N/A   Scattered Clouds
10:00 AM 87.8 °F 97.6 °F 75.2 °F 66% 29.86 in 6.2 mi SE 16.1 mph - N/A   Mostly Cloudy
11:00 AM 89 °F - 74 °F 54% 29.85 in 16 mi ESE 13.8 mph - -   Mostly Cloudy
11:00 AM 89.6 °F 99.8 °F 75.2 °F 62% 29.86 in 6.2 mi SE 15.0 mph - N/A   Mostly Cloudy
12:00 PM 87.8 °F 99.7 °F 77.0 °F 70% 29.83 in 6.2 mi East 15.0 mph - N/A   Mostly Cloudy
1:00 PM 89.6 °F 104.7 °F 78.8 °F 70% 29.83 in 6.2 mi East 15.0 mph - N/A   Scattered Clouds
2:00 PM 87 °F - 78 °F 68% 29.80 in 16 mi East 17.3 mph - -   Partly Cloudy
2:00 PM 87.8 °F 102.5 °F 78.8 °F 75% 29.80 in 6.2 mi East 17.3 mph - N/A   Scattered Clouds
3:00 PM 89.6 °F 104.7 °F 78.8 °F 70% 29.77 in 6.2 mi East 15.0 mph - N/A   Partly Cloudy
4:00 PM 87.8 °F 99.7 °F 77.0 °F 70% 29.74 in 6.2 mi East 16.1 mph - N/A   Partly Cloudy
5:00 PM 87 °F - 77 °F 65% 29.74 in 16 mi East 17.3 mph - -   Scattered Clouds
5:00 PM 87.8 °F 99.7 °F 77.0 °F 70% 29.74 in 6.2 mi East 17.3 mph - N/A   Partly Cloudy
6:00 PM 86.0 °F 99.3 °F 78.8 °F 79% 29.74 in 6.2 mi East 16.1 mph - N/A   Partly Cloudy
7:00 PM 84.2 °F 94.1 °F 77.0 °F 79% 29.77 in 6.2 mi East 16.1 mph - N/A   Partly Cloudy
8:00 PM 83 °F - 77 °F 76% 29.78 in 16 mi East 16.1 mph - -   Scattered Clouds
8:00 PM 82.4 °F 90.9 °F 77.0 °F 84% 29.77 in 6.2 mi East 17.3 mph - N/A   Partly Cloudy
9:00 PM 82.4 °F 90.9 °F 77.0 °F 84% 29.80 in 6.2 mi East 15.0 mph - N/A   Partly Cloudy
10:00 PM 82.4 °F 90.9 °F 77.0 °F 84% 29.83 in 6.2 mi East 11.5 mph - N/A   Partly Cloudy
11:00 PM 83 °F - 78 °F 80% 29.86 in 16 mi ESE 15.0 mph - -   Partly Cloudy
11:00 PM 82.4 °F 92.4 °F 78.8 °F 89% 29.86 in 6.2 mi ESE 13.8 mph - N/A   Scattered Clouds